Regional Weather Roundup
Issued by NWS

Home | Current Version | Previous Version | Text Only | Print | Product List | Glossary On
Versions: 1 2 3 4 5 6 7 8 9 10 11 12 13 14 15 16 17 18 19 20 21 22 23 24 25 26 27 28 29 30 31 32 33 34 35 36 37 38 39 40 41 42 43 44 45 46 47 48 49 50
000
ASUS44 KOUN 230100
RWROK

WEATHER ROUNDUP FOR OKLAHOMA
NATIONAL WEATHER SERVICE NORMAN OK
700 PM CST MON DEC 22 2014

NOTE: "FAIR" INDICATES FEW OR NO CLOUDS BELOW 12,000 FEET WITH NO
      SIGNIFICANT WEATHER AND/OR OBSTRUCTIONS TO VISIBILITY.

OKZ001>007-009>012-014-015-017-230200-
NORTHWEST OKLAHOMA AND THE PANHANDLE

CITY           SKY/WX    TMP DP  RH WIND       PRES   REMARKS
GAGE           CLOUDY    38  31  76 SW6       29.69R WCI  33
$$

OKZ016-021>023-033>039-044-045-230200-
SOUTHWEST OKLAHOMA

CITY           SKY/WX    TMP DP  RH WIND       PRES   REMARKS
LAWTON/REGL    CLOUDY    55  33  43 N3        29.68R
LAWTON/FT SILL CLOUDY    54  34  47 N6        29.66R
FREDERICK      CLOUDY    48  38  68 S6        29.66R
CLINTON        CLOUDY    46  34  62 NW8       29.70R
HOBART         CLOUDY    49  34  56 N9        29.68R
$$

OKZ018>020-024>031-230200-
CENTRAL OKLAHOMA

CITY           SKY/WX    TMP DP  RH WIND       PRES   REMARKS
OKLAHOMA CITY  MOCLDY    49  34  56 NW8       29.65R
OKC/WILEY POST MOCLDY    48  35  60 NW8       29.66R
STILLWATER     CLEAR     44  37  76 W3        29.65R
GUTHRIE        PTCLDY    47  36  65 NW3       29.66R
$$

OKZ008-013-054>072-230200-
NORTHEAST OKLAHOMA

CITY           SKY/WX    TMP DP  RH WIND       PRES   REMARKS
TULSA          PTCLDY    45  40  82 W7        29.65R
TULSA/JONES    PTCLDY    42  39  89 CALM      29.65R
PONCA CITY     CLEAR     47  35  63 SW5       29.63R
BARTLESVILLE   CLEAR     43  39  86 W9        29.65R
MUSKOGEE       PTCLDY    51  43  74 NW10      29.64R
$$

OKZ032-040>043-046>053-073>077-230200-
SOUTH CENTRAL/SOUTHEAST OKLAHOMA

CITY           SKY/WX    TMP DP  RH WIND       PRES   REMARKS
MCALESTER      MOCLDY    51  43  74 NW3       29.65R
$$



USA.gov is the U.S. government's official web portal to all federal, state and local government web resources and services.